sat.trackr.live / text

‹ back to catalog

STARLINK-35387

NORAD 65909 · 2025-224AD

PAYLOAD ACTIVE UNKNOWN

§ Identity

Operator
Country
US
Launch date
2025-10-07
Launch site
AFETR
Launch vehicle
Mass (kg)
RCS (m²)

Purposes: comms

External: N2YO · Heavens-Above · Gunter

§ Orbital elements

Epoch: 2026-05-25T01:36:50.514048Z

Period
94.10 min
Inclination
53.1586°
Eccentricity
0.0000981
Mean motion
15.30209031 rev/d
Perigee alt
474.5 km
Apogee alt
475.9 km
Semi-major
6,853.3 km
B*
8.1291e-4
RAAN
16.8864°
Arg perigee
76.8065°
Mean anomaly
283.3045°
Rev number
3,651

§ Raw data

STARLINK-353871 65909U 25224AD  26145.06725132  .00023801  00000+0  81291-3 0  99952 65909  53.1586  16.8864 0000981  76.8065 283.3045 15.30209031 36516

JSON: /api/v1/satellites/65909 · /tle

For live sub-satellite position, see the globe view (requires WebGL).

§ Visibility from observer

Set your observer location to see the next 7 days of passes ≥ 10°. The values pass through the URL so the page stays shareable.

No JS? Fill the form by hand. The geolocation button needs JavaScript.